SL-8 DEB

Satellite information

Favourite Embed

Satellite Type and Status

DEBRISIN ORBIT

Key statistics

Satellite SL-8 DEB at a glance.

Uptime

16691

Days in orbit

Revolutions

≈ 13.8

Per day

Orbit

LEO

Low Earth Orbit

Inclination

65.8

Latest

Satellite identification and parameters

Extended collection of information and parameters for SL-8 DEB.

Object identification

Identified? True

Debris? True

Object name: SL-8 DEB

International designator: 1980-026C

Object number (NORAD): 11752

Object ID (CCSDS): 11752

Country: COMMONWEALTH OF INDEPENDENT STATES (CIS)

Current information (Y/N): Y

RCS size: MEDIUM

Orbital parameters

Period: 104.703 minutes

Inclination: 65.8403 deg

SMA: 7358.662 km

Apoapsis: 997.268 km

Periapsis: 963.786 km

RAAN: 147.2176 deg

Eccentricy: 0.002275

Argument of periapsis: 342.053 deg

Mean anomaly: 101.5633 deg

Mean motion: 13.753224 rev/day

Mean motion (dot): 0.00000026 rev/day2

B* drag term: 0.00011065226 1/REarth

Two-line elements (TLE)

Creation date: Dec. 14, 2025, 3:07 a.m.

Reference frame: TEME

Reference center: EARTH

Epoch: Dec. 13, 2025, 4:19 p.m. UTC

TLE line 0: 0 SL-8 DEB

TLE line 1: 1 11752U 80026C 25347.68051619 .00000026 00000-0 11065-3 0 9993

TLE line 2: 2 11752 65.8403 147.2176 0022750 342.0530 101.5633 13.75322400293577

Live tracking on map

Real-time ground track for satellite SL-8 DEB.

In-orbit conjunctions

There are no conjunctions computed for SL-8 DEB, at the moment. Check back to stay up to date, as we update our databases every day.

Go to all conjunctions

Associated space launch

ASAT target satellite

SL-8 DEB was lifted into orbit during the mission ‘Kosmos-3M | DS-P1-M 14’, on board a Kosmos-3M space rocket.

The launch took place on April 3, 1980, 7:40 a.m. from 132/2.

For more information about the launch, click the button.

Launch to space Kosmos-3M | DS-P1-M 14
Kosmos-3M | DS-P1-M 14

Agency: N/A

Status: Launch Successful

Launch date: April 3, 1980, 7:40 a.m. UTC

Rocket: Kosmos-3M

Launch pad: 132/2

Location: Plesetsk Cosmodrome, Russian Federation

...

Latest news about this satellite

There are no fresh news available about this satellite. Check back as we update our databases every day.


Newsletter sign-up

Weekly statistics, charts and insights to help you stay on top of the space industry.